Bellaire, MI

12:45 PM EDT on August 21, 2017 (GMT -0400)
Antrim County

Weather History for KACB - September, 2013

Change the Weather History Date:

Monday, September 30, 2013

  Actual Average (KCVX) Record (KCVX)
Temperature  
Mean Temperature 52 °F -  
Max Temperature 68 °F 69 °F 82 °F (2002)
Min Temperature 36 °F 43 °F 39 °F (2004)
Degree Days  
Heating Degree Days 13    
Growing Degree Days 2 (Base 50)    
Moisture  
Dew Point 45 °F    
Average Humidity 79    
Maximum Humidity 99    
Minimum Humidity 44    
Precipitation  
Precipitation 0.00 in - - ()
Sea Level Pressure  
Sea Level Pressure 29.95 in    
Wind  
Wind Speed 1 mph (South)    
Max Wind Speed 9 mph    
Max Gust Speed -    
Visibility 8 miles    
Events Fog    
Averages and records for this station are not official NWS values.
T = Trace of Precipitation, MM = Missing Value Source: NWS Daily Summary

Daily Weather History Graph

Daily Weather History Graph

Search for Another Location

Airport or City:

Trip Planner

Search our weather history database for the weather conditions in past years. The results will help you decide how hot, cold, wet, or windy it might be!

Date:

Astronomy

Sep. 30, 2013 Rise Set
Actual Time 7:37 AM EDT 7:22 PM EDT
Civil Twilight 7:08 AM EDT 7:51 PM EDT
Nautical Twilight 6:34 AM EDT 8:25 PM EDT
Astronomical Twilight 5:59 AM EDT 9:00 PM EDT
Moon 3:04 AM EDT (9/30) 5:01 PM EDT (9/30)
Length of Visible Light 12h 43m
Length of Day
11h 44m
Waning Crescent, 19% of the Moon is Illuminated
Sep 30
Waning Crescent
Oct 4
New
Oct 11
First Quarter
Oct 18
Full
Oct 26
Last Quarter

Hourly Weather History & Observations

Time (EDT) Temp. Dew Point Humidity Pressure Visibility Wind Dir Wind Speed Gust Speed Precip Events Conditions
12:11 AM 43.0 °F 42.3 °F 97% 30.02 in 7.0 mi Calm Calm - N/A   Clear
12:32 AM 42.1 °F 41.4 °F 97% 30.02 in 2.0 mi Calm Calm - N/A   Clear
12:52 AM 41.2 °F 40.5 °F 97% 30.02 in 2.5 mi Calm Calm - N/A   Clear
1:12 AM 41.9 °F 41.2 °F 97% 30.02 in 7.0 mi Calm Calm - N/A   Clear
1:32 AM 40.5 °F 39.7 °F 97% 30.01 in 2.5 mi Calm Calm - N/A   Clear
1:52 AM 39.7 °F 39.2 °F 98% 30.02 in 2.5 mi Calm Calm - N/A   Clear
2:12 AM 40.1 °F 39.6 °F 98% 30.01 in 5.0 mi Calm Calm - N/A   Clear
2:32 AM 39.9 °F 39.4 °F 98% 30.01 in 3.0 mi Calm Calm - N/A   Clear
2:52 AM 39.7 °F 39.2 °F 98% 30.01 in 4.0 mi Calm Calm - N/A   Clear
3:12 AM 40.3 °F 39.7 °F 98% 30.01 in 5.0 mi Calm Calm - N/A   Clear
3:32 AM 38.8 °F 38.3 °F 98% 30.00 in 3.0 mi Calm Calm - N/A   Clear
3:52 AM 38.3 °F 37.6 °F 97% 30.00 in 2.0 mi Calm Calm - N/A   Clear
4:12 AM 37.8 °F 37.0 °F 97% 30.00 in 1.8 mi Calm Calm - N/A   Mist
4:32 AM 37.8 °F 37.2 °F 98% 30.00 in 0.8 mi Calm Calm - N/A   Mist
4:52 AM 39.0 °F 38.3 °F 97% 30.00 in 4.0 mi Calm Calm - N/A   Mostly Cloudy
5:12 AM 37.4 °F 36.9 °F 98% 30.00 in 0.8 mi Calm Calm - N/A   Overcast
5:32 AM 38.3 °F 37.6 °F 97% 30.01 in 0.2 mi Calm Calm - N/A Fog Fog
5:52 AM 37.9 °F 37.4 °F 98% 30.01 in 0.2 mi Calm Calm - N/A Fog Fog
6:12 AM 37.6 °F 37.0 °F 98% 30.02 in 1.0 mi Calm Calm - N/A   Overcast
6:32 AM 36.5 °F 35.8 °F 97% 30.02 in 0.8 mi Calm Calm - N/A   Mostly Cloudy
6:52 AM 37.4 °F 36.9 °F 98% 30.02 in 4.0 mi Calm Calm - N/A   Clear
7:12 AM 37.0 °F 36.3 °F 97% 30.01 in 3.0 mi Calm Calm - N/A   Clear
7:33 AM 36.9 °F 36.5 °F 99% 30.01 in 2.0 mi Calm Calm - N/A   Clear
7:52 AM 36.3 °F 35.8 °F 98% 30.01 in 4.0 mi Calm Calm - N/A   Clear
8:12 AM 37.2 °F 36.7 °F 98% 30.00 in 10.0 mi Calm Calm - N/A   Clear
8:33 AM 40.6 °F 40.1 °F 98% 29.99 in 7.0 mi Calm Calm - N/A   Clear
8:52 AM 42.8 °F 42.3 °F 98% 30.00 in 10.0 mi Calm Calm - N/A   Clear
9:12 AM 45.7 °F 45.1 °F 98% 29.99 in 10.0 mi Calm Calm - N/A   Clear
9:33 AM 48.6 °F 48.0 °F 98% 29.99 in 10.0 mi South 3.5 mph - N/A   Clear
9:52 AM 50.2 °F 49.3 °F 97% 29.98 in 10.0 mi South 3.5 mph - N/A   Clear
10:12 AM 52.2 °F 50.0 °F 92% 29.97 in 10.0 mi Calm Calm - N/A   Clear
10:33 AM 55.6 °F 50.5 °F 83% 29.96 in 10.0 mi Calm Calm - N/A   Clear
10:52 AM 58.3 °F 50.5 °F 75% 29.96 in 10.0 mi Calm Calm - N/A   Clear
11:12 AM 61.7 °F 50.4 °F 66% 29.97 in 10.0 mi Calm Calm - N/A   Clear
11:33 AM 62.2 °F 49.1 °F 62% 29.97 in 10.0 mi SW 4.6 mph - N/A   Clear
11:52 AM 63.9 °F 47.7 °F 56% 29.97 in 10.0 mi South 4.6 mph - N/A   Clear
12:13 PM 65.3 °F 48.2 °F 54% 29.96 in 10.0 mi South 5.8 mph - N/A   Clear
12:32 PM 64.8 °F 47.1 °F 53% 29.96 in 10.0 mi South 4.6 mph - N/A   Clear
12:52 PM 65.3 °F 47.3 °F 52% 29.95 in 10.0 mi SSE 4.6 mph - N/A   Clear
1:13 PM 66.6 °F 47.5 °F 50% 29.95 in 10.0 mi South 8.1 mph - N/A   Clear
1:32 PM 67.3 °F 47.3 °F 49% 29.93 in 10.0 mi South 6.9 mph - N/A   Clear
1:52 PM 67.8 °F 48.4 °F 50% 29.93 in 10.0 mi South 5.8 mph - N/A   Clear
2:13 PM 68.4 °F 47.8 °F 48% 29.93 in 10.0 mi SSW 4.6 mph - N/A   Clear
2:32 PM 68.5 °F 48.4 °F 49% 29.92 in 10.0 mi SSE 8.1 mph - N/A   Clear
2:52 PM 68.4 °F 48.9 °F 50% 29.92 in 10.0 mi South 9.2 mph - N/A   Clear
3:13 PM 68.4 °F 48.2 °F 48% 29.91 in 10.0 mi SSW 5.8 mph - N/A   Clear
3:32 PM 68.5 °F 47.5 °F 47% 29.91 in 10.0 mi SSW 6.9 mph - N/A   Clear
3:52 PM 68.7 °F 46.2 °F 44% 29.90 in 10.0 mi SW 5.8 mph - N/A   Clear
4:13 PM 68.4 °F 46.0 °F 45% 29.88 in 10.0 mi South 3.5 mph - N/A   Clear
4:32 PM 68.4 °F 45.7 °F 44% 29.88 in 10.0 mi SSE 6.9 mph - N/A   Clear
4:53 PM 68.9 °F 46.9 °F 45% 29.88 in 10.0 mi South 5.8 mph - N/A   Clear
5:12 PM 68.2 °F 46.9 °F 47% 29.88 in 10.0 mi South 3.5 mph - N/A   Clear
5:32 PM 68.9 °F 48.7 °F 49% 29.88 in 10.0 mi South 5.8 mph - N/A   Clear
5:53 PM 68.7 °F 48.4 °F 48% 29.87 in 10.0 mi South 5.8 mph - N/A   Clear
6:12 PM 68.0 °F 48.0 °F 49% 29.87 in 10.0 mi SSW 3.5 mph - N/A   Clear
6:33 PM 66.9 °F 49.3 °F 53% 29.87 in 10.0 mi Calm Calm - N/A   Clear
6:52 PM 62.2 °F 51.4 °F 68% 29.87 in 10.0 mi Calm Calm - N/A   Clear
7:12 PM 59.5 °F 52.7 °F 78% 29.87 in 10.0 mi Calm Calm - N/A   Clear
7:33 PM 56.3 °F 52.0 °F 85% 29.87 in 10.0 mi Calm Calm - N/A   Clear
7:52 PM 55.2 °F 51.8 °F 88% 29.88 in 10.0 mi Calm Calm - N/A   Clear
8:12 PM 54.1 °F 51.3 °F 90% 29.88 in 10.0 mi Calm Calm - N/A   Clear
8:33 PM 53.6 °F 51.1 °F 91% 29.88 in 10.0 mi Calm Calm - N/A   Clear
8:52 PM 52.7 °F 50.5 °F 92% 29.88 in 10.0 mi Calm Calm - N/A   Clear
9:12 PM 52.2 °F 50.5 °F 94% 29.89 in 10.0 mi Calm Calm - N/A   Clear
9:33 PM 51.8 °F 50.0 °F 94% 29.88 in 10.0 mi Calm Calm - N/A   Clear
9:52 PM 52.2 °F 50.4 °F 94% 29.88 in 10.0 mi Calm Calm - N/A   Clear
10:12 PM 55.6 °F 51.8 °F 87% 29.88 in 10.0 mi Calm Calm - N/A   Clear
10:33 PM 57.7 °F 51.3 °F 79% 29.88 in 10.0 mi Calm Calm - N/A   Clear
10:52 PM 57.4 °F 51.3 °F 80% 29.87 in 10.0 mi Calm Calm - N/A   Clear
11:13 PM 57.4 °F 50.9 °F 79% 29.87 in 10.0 mi Calm Calm - N/A   Clear
11:33 PM 57.0 °F 50.9 °F 80% 29.87 in 10.0 mi Calm Calm - N/A   Clear
11:52 PM 57.2 °F 50.7 °F 79% 29.87 in 10.0 mi Calm Calm - N/A   Clear